Terminal Aerodrome Forecast
Issued by NWS San Angelo, TX

Home | Current Version | Previous Version | Text Only | Print | Product List | Glossary On
Versions: 1 2 3 4 5 6 7 8 9 10 11 12 13
000
FTUS44 KSJT 300520
TAFABI
TAF
KABI 300520Z 3006/3106 22005KT P6SM BKN120
     FM301500 25009KT P6SM SCT100
     FM310100 17006KT P6SM FEW100=

USA.gov is the U.S. government's official web portal to all federal, state and local government web resources and services.